STARLINK-2451 (48114 NORAD) Tracking and Keplerian Element Data

This shows tracking and keplerian element data for the satellite.

Feedback or suggestion? Click here.




ElementValue
Catalog48114
NameSTARLINK-2451
Epoch Orbit195
Epoch Day173.91668981
Epoch Year2021
RAAN331.4565
Inclination53.0504
Eccentricity0.0001386
Argument of Perigee86.4797
Mean Anonmoly128.0575
Mean Motion15.06321865
Decay Rate0.0011969
L11 48114U 21027Y 21173.91668981 .00119690 00000-0 79357-2 0 9991
L22 48114 53.0504 331.4565 0001386 86.4797 128.0575 15.06321865 1953

Live tracking and technical data element details for STARLINK-2451 (NORAD 48114). STARLINK-2451 can be tracked NOW for your location showing map with azimuth and elevation plus other details from your city location.

Track the satellite on the map from your city or location and see movement details for azimuth, elevation, latitude, longitude, range, height, and movement on the map or in text.







IsCatalogInMostPopularTable: catalog: 48114, numindb: 35
Update: records affected: 1



GetName: 48114 STARLINK-2451

Hit Count: updated at: Thu, 24 Jun 2021 02:40:09 GMT